Other Surface Observations
Issued by NWS

Home | Current Version | Previous Version | Text Only | Print | Product List | Glossary On
Versions: 1 2 3 4 5 6 7 8 9 10 11 12 13 14 15 16 17 18 19 20 21 22 23 24 25 26 27 28 29 30 31 32 33 34 35 36 37 38 39 40 41 42 43 44 45 46 47 48 49 50
252
SXUS52 KTAE 132018
OSOTAE
OSOTAE
North Florida/South Alabama/Southwest Georgia Weather Roundup
National Weather Service Tallahassee Florida
300 PM EST SAT FEB 13 2016

Note: "fair" indicates few or no clouds below 12,000 feet with no
significant weather and/or obstructions to visibility.

!FLZ017-115-028-034-025-132100
...North Florida...

CITY           SKY/WX    TMP DP  RH WIND       PRES   REMARKS
TALLAHASSEE    SUNNY     60  11  14 N8        30.28F
APALACHICOLA   SUNNY     62  22  21 VRB3      30.29F
PERRY          SUNNY     62  11  13 N12G18    30.28F
CROSS CITY       N/A     65  19  17 N6        30.25F
JACKSONVILLE   SUNNY     60  18  19 NW7       30.24F
$$

!FLZ112-006-005-002-011-132100
...Florida Panhandle...

CITY           SKY/WX    TMP DP  RH WIND       PRES   REMARKS
MARIANNA       SUNNY     58  14  17 N10       30.31F
BONIFAY        NOT AVBL
PANAMA CITY NW FAIR      60  21  22 N12       30.30F
TYNDALL AFB    SUNNY     61  21  21 N8        30.31F
TYND DRONE APT FAIR      61  19  19 MISG      30.31F
DE FUNIAK SPR  FAIR      56  14  18 N9        30.33F
EGLIN AFB      MOSUNNY   61  15  16 N9        30.31F
DESTIN         SUNNY     61  20  20 N8        30.32F
HURLBURT       SUNNY     60  13  15 NW10      30.31F
CRESTVIEW      SUNNY     59  13  16 NE9       30.34F
PENSACOLA      SUNNY     60  17  18 N13       30.33F
$$

!ALZ063-066-132100
...South Alabama...

CITY           SKY/WX    TMP DP  RH WIND       PRES   REMARKS
DOTHAN         SUNNY     55  12  18 N10       30.35F
OZARK CAIRNS   SUNNY     55  14  19 NW12      30.32F
FT RUCKER HELI SUNNY     56  12  17 NW10      30.32F
RUCKER HELI 3  FAIR      55  12  18 N10G16    30.34F
RUCKER HELI 2  NOT AVBL
FLORALA APT    NOT AVBL
ANDALUSIA      SUNNY     59  14  17 N7G18     30.34F
TROY           SUNNY     53  13  20 NW10      30.36F
EUFALA         FAIR      53  12  19 NE8       30.32F
MOBILE         SUNNY     58  25  28 N12       30.35F
$$

!GAZ120>161-132100
...Southwest and South Central Georgia...

CITY           SKY/WX    TMP DP  RH WIND       PRES   REMARKS
THOMASVILLE    FAIR      54  19  26 N8        30.30F
BAINBRIDGE     SUNNY     55  18  22 N10       30.32S
MOODY AFB      SUNNY     55  19  24 NW13      30.26F
VALDOSTA       SUNNY     58  20  22 MISG      30.28F
MOULTRIE       SUNNY     54  19  26 N10G16    30.30F
BLAKELY        SUNNY     55  19  24 NW8       30.33F
ALBANY         SUNNY     55  13  18 N12       30.33F
TIFTON         FAIR      51  21  30 N10G16    30.29F
FITZGERALD     FAIR      54  14  21 NW15      30.32S
CORDELE        FAIR      53  11  18 NW9       30.31F
AMERICUS       FAIR      50  14  23 NW7G17    30.33F
HOMERVILLE     FAIR      55  28  35 N6        30.28F
$$

!GMZ750-755-770-775-132100
...Coastal and Buoy Obs...

STATION/POSITION TIME  TEMP    WIND        PRES    VSBY  WAVE
                       AIR SEA DIR/SP/G                  HT/PER
                 (UTC) (F)     (DEG/KT/KT) (MB)    (MI)  (FT/S)
KEATON BEACH     2000   60     350/  6/  9 1024.8F
CEDAR KEY        2000   57     300/ 11/ 15 1024.7F
C TOWER          NOT AVBL
APALACHICOLA BUO 1950   57 66   10/ 14/ 17 1025.7F         5/ 6
PANAMA CITY BUOY 1950   56 68   20/ 14/ 17 1026.8F         5/ 7
MOBILE BUOY      NOT AVBL
ORANGE BCH AL BU 1950   55 65   20/ 10/ 12 1027.1F         2/ 4
$$




USA.gov is the U.S. government's official web portal to all federal, state and local government web resources and services.